Weather History for Albion, NE

Change the Weather History Date:

Wednesday, March 26, 2014

  Actual Average (KOFK) Record (KOFK)
Temperature  
Mean Temperature 46 °F 41 °F  
Max Temperature 66 °F 53 °F 86 °F (2012)
Min Temperature 25 °F 30 °F -4 °F (1965)
Degree Days  
Heating Degree Days 20 24  
Month to date heating degree days 744  
Since 1 July heating degree days 5837  
Cooling Degree Days 0 0  
Month to date cooling degree days 0  
Year to date cooling degree days 0  
Moisture  
Dew Point 24 °F    
Average Humidity 50    
Maximum Humidity 87    
Minimum Humidity 26    
Precipitation  
Precipitation 0.00 in 0.07 in 1.01 in (1959)
Month to date precipitation 1.39  
Year to date precipitation 2.74  
Snow  
Snow 0.00 in 0.10 in - ()
Month to date snowfall 4.3  
Since 1 July snowfall 27.1  
Snow Depth -    
Sea Level Pressure  
Sea Level Pressure 29.67 in    
Wind  
Wind Speed 17 mph (South)    
Max Wind Speed 34 mph    
Max Gust Speed 45 mph    
Visibility 9 miles    
Events Thunderstorm    
T = Trace of Precipitation, MM = Missing Value Source: NWS Daily Summary

Daily Weather History Graph

Daily Weather History Graph

Search for Another Location

Airport:

Trip Planner

Search our weather history database for the weather conditions in past years. The results will help you decide how hot, cold, wet, or windy it might be!

Date:

Astronomy

Mar. 26, 2014 Rise Set
Actual Time 7:25 AM CDT 7:51 PM CDT
Civil Twilight 6:57 AM CDT 8:19 PM CDT
Nautical Twilight 6:24 AM CDT 8:51 PM CDT
Astronomical Twilight 5:51 AM CDT 9:25 PM CDT
Moon 4:38 AM CDT (3/26) 3:27 PM CDT (3/26)
Length of Visible Light 13h 21m
Length of Day
12h 25m
Waning Crescent, 21% of the Moon is Illuminated
Mar 26
Waning Crescent
Mar 30
New
Apr 7
First Quarter
Apr 15
Full
Apr 22
Last Quarter

Hourly Weather History & Observations

Time (CDT) Temp. Windchill Dew Point Humidity Pressure Visibility Wind Dir Wind Speed Gust Speed Precip Events Conditions
12:15 AM 25.5 °F 17.8 °F 7.5 °F 47% 30.03 in 10.0 mi SSE 6.9 mph - N/A   Scattered Clouds
12:35 AM 27.5 °F 18.0 °F 7.5 °F 43% 30.02 in 10.0 mi SSE 10.4 mph - N/A   Scattered Clouds
12:55 AM 28.4 °F 18.5 °F 7.5 °F 41% 30.01 in 10.0 mi SSE 11.5 mph - N/A   Scattered Clouds
1:15 AM 28.8 °F 19.0 °F 7.2 °F 40% 30.01 in 10.0 mi SSE 11.5 mph - N/A   Scattered Clouds
1:35 AM 27.5 °F 17.4 °F 7.3 °F 43% 30.00 in 10.0 mi SSE 11.5 mph - N/A   Mostly Cloudy
1:55 AM 27.9 °F 17.3 °F 7.7 °F 43% 29.99 in 10.0 mi SSE 12.7 mph - N/A   Mostly Cloudy
2:15 AM 27.5 °F 16.8 °F 7.7 °F 43% 29.99 in 10.0 mi SSE 12.7 mph - N/A   Scattered Clouds
2:35 AM 27.0 °F 18.0 °F 8.4 °F 46% 29.97 in 10.0 mi SSE 9.2 mph - N/A   Scattered Clouds
2:55 AM 26.6 °F 17.5 °F 9.5 °F 49% 29.96 in 10.0 mi SSE 9.2 mph - N/A   Scattered Clouds
3:15 AM 27.0 °F 17.3 °F 10.4 °F 50% 29.94 in 10.0 mi SSE 10.4 mph - N/A   Scattered Clouds
3:35 AM 27.3 °F 17.1 °F 10.4 °F 49% 29.92 in 10.0 mi SSE 11.5 mph - N/A   Mostly Cloudy
3:55 AM 27.5 °F 17.4 °F 11.1 °F 50% 29.91 in 10.0 mi SSE 11.5 mph - N/A   Mostly Cloudy
4:15 AM 28.0 °F 17.0 °F 11.3 °F 50% 29.89 in 10.0 mi SSE 13.8 mph - N/A   Mostly Cloudy
4:35 AM 28.2 °F 17.2 °F 11.8 °F 50% 29.88 in 10.0 mi SSE 13.8 mph - N/A   Scattered Clouds
4:55 AM 28.9 °F 17.7 °F 12.2 °F 50% 29.87 in 10.0 mi SSE 15.0 mph - N/A   Mostly Cloudy
5:15 AM 29.3 °F 18.6 °F 12.6 °F 50% 29.86 in 10.0 mi SSE 13.8 mph 23.0 mph N/A   Scattered Clouds
5:35 AM 30.0 °F 18.7 °F 13.1 °F 49% 29.86 in 10.0 mi SSE 16.1 mph - N/A   Scattered Clouds
5:55 AM 30.0 °F 19.1 °F 13.6 °F 51% 29.84 in 10.0 mi SSE 15.0 mph - N/A   Scattered Clouds
6:15 AM 29.3 °F 18.2 °F 14.0 °F 53% 29.83 in 10.0 mi SSE 15.0 mph - N/A   Clear
6:35 AM 29.1 °F 18.4 °F 14.4 °F 54% 29.83 in 10.0 mi SSE 13.8 mph - N/A   Scattered Clouds
6:55 AM 30.0 °F 18.7 °F 15.3 °F 54% 29.82 in 10.0 mi SSE 16.1 mph - N/A   Scattered Clouds
7:15 AM 30.0 °F 18.3 °F 15.4 °F 55% 29.82 in 10.0 mi SSE 17.3 mph - N/A   Scattered Clouds
7:35 AM 29.3 °F 18.2 °F 15.4 °F 56% 29.81 in 10.0 mi SSE 15.0 mph 20.7 mph N/A   Clear
7:55 AM 29.3 °F 19.1 °F 15.8 °F 57% 29.80 in 10.0 mi SSE 12.7 mph - N/A   Clear
8:15 AM 30.0 °F 18.7 °F 16.2 °F 56% 29.79 in 10.0 mi SSE 16.1 mph - N/A   Clear
8:35 AM 31.5 °F 20.5 °F 16.9 °F 55% 29.78 in 10.0 mi SSE 16.1 mph - N/A   Clear
8:55 AM 33.1 °F 22.2 °F 18.1 °F 54% 29.77 in 10.0 mi South 17.3 mph 24.2 mph N/A   Clear
9:15 AM 34.7 °F 22.8 °F 18.5 °F 52% 29.76 in 10.0 mi South 23.0 mph 28.8 mph N/A   Clear
9:35 AM 36.1 °F 24.2 °F 19.2 °F 50% 29.74 in 10.0 mi South 25.3 mph 29.9 mph N/A   Clear
9:55 AM 37.9 °F 27.9 °F 19.8 °F 48% 29.73 in 10.0 mi South 19.6 mph 28.8 mph N/A   Clear
10:15 AM 39.9 °F 29.7 °F 20.3 °F 45% 29.72 in 10.0 mi South 23.0 mph 32.2 mph N/A   Clear
10:35 AM 42.1 °F 32.8 °F 21.0 °F 43% 29.71 in 10.0 mi South 21.9 mph 29.9 mph N/A   Clear
10:55 AM 44.4 °F 34.7 °F 21.7 °F 41% 29.70 in 10.0 mi South 28.8 mph 34.5 mph N/A   Clear
11:15 AM 46.8 °F - 22.3 °F 38% 29.68 in 10.0 mi South 28.8 mph 35.7 mph N/A   Clear
11:35 AM 49.3 °F - 22.8 °F 35% 29.67 in 10.0 mi SSW 28.8 mph 36.8 mph N/A   Clear
11:55 AM 50.7 °F - 23.5 °F 35% 29.66 in 10.0 mi SSW 29.9 mph 36.8 mph N/A   Clear
12:15 PM 52.2 °F - 24.1 °F 34% 29.64 in 10.0 mi South 27.6 mph 32.2 mph N/A   Clear
12:35 PM 53.2 °F - 24.8 °F 33% 29.63 in 10.0 mi South 24.2 mph 35.7 mph N/A   Clear
12:55 PM 55.4 °F - 25.5 °F 32% 29.61 in 10.0 mi South 25.3 mph 29.9 mph N/A   Clear
1:15 PM 56.5 °F - 26.1 °F 31% 29.59 in 10.0 mi South 26.5 mph 36.8 mph N/A   Clear
1:35 PM 58.1 °F - 26.6 °F 30% 29.57 in 10.0 mi South 25.3 mph 33.4 mph N/A   Clear
1:55 PM 59.9 °F - 27.3 °F 29% 29.56 in 10.0 mi South 27.6 mph 34.5 mph N/A   Clear
2:15 PM 60.4 °F - 27.5 °F 29% 29.54 in 10.0 mi SSW 24.2 mph 35.7 mph N/A   Clear
2:35 PM 62.1 °F - 27.9 °F 27% 29.53 in 10.0 mi South 26.5 mph 34.5 mph N/A   Clear
2:55 PM 63.3 °F - 28.2 °F 27% 29.51 in 10.0 mi SSW 29.9 mph 38.0 mph N/A   Clear
3:15 PM 64.8 °F - 28.9 °F 26% 29.49 in 10.0 mi South 27.6 mph 36.8 mph N/A   Clear
3:35 PM 65.3 °F - 29.5 °F 26% 29.48 in 10.0 mi SSW 32.2 mph 39.1 mph N/A   Clear
3:55 PM 66.0 °F - 30.6 °F 27% 29.48 in 7.0 mi South 33.4 mph 42.6 mph N/A   Clear
4:15 PM 66.0 °F - 31.5 °F 28% 29.46 in 7.0 mi South 28.8 mph 42.6 mph N/A   Clear
4:35 PM 66.0 °F - 32.0 °F 28% 29.45 in 5.0 mi South 34.5 mph 41.4 mph N/A   Haze
4:55 PM 64.6 °F - 32.7 °F 30% 29.44 in 5.0 mi South 29.9 mph 44.9 mph N/A   Haze
5:15 PM 63.0 °F - 34.3 °F 34% 29.44 in 5.0 mi South 32.2 mph 41.4 mph N/A   Haze
5:35 PM 61.5 °F - 35.8 °F 38% 29.44 in 5.0 mi South 34.5 mph 41.4 mph N/A   Haze
5:55 PM 60.4 °F - 36.9 °F 42% 29.44 in 5.0 mi South 26.5 mph 41.4 mph N/A   Haze
6:15 PM 58.1 °F - 37.2 °F 46% 29.45 in 5.0 mi South 28.8 mph 36.8 mph N/A   Haze
6:35 PM 55.4 °F - 38.1 °F 52% 29.46 in 7.0 mi South 28.8 mph 34.5 mph N/A   Clear
6:55 PM 53.2 °F - 38.1 °F 57% 29.46 in 7.0 mi South 20.7 mph 39.1 mph N/A   Clear
7:15 PM 50.9 °F - 38.3 °F 62% 29.47 in 10.0 mi South 28.8 mph 39.1 mph N/A   Clear
7:35 PM 49.3 °F - 38.7 °F 67% 29.46 in 10.0 mi South 25.3 mph 36.8 mph N/A   Scattered Clouds
7:55 PM 48.9 °F - 39.0 °F 69% 29.47 in 10.0 mi South 24.2 mph 33.4 mph N/A   Overcast
8:15 PM 48.4 °F - 39.2 °F 71% 29.46 in 10.0 mi South 21.9 mph 29.9 mph N/A   Overcast
8:35 PM 47.8 °F - 39.6 °F 73% 29.47 in 10.0 mi South 19.6 mph 29.9 mph N/A   Overcast
8:55 PM 47.5 °F - 39.6 °F 74% 29.47 in 10.0 mi South 19.6 mph 27.6 mph N/A   Overcast
9:15 PM 46.9 °F - 39.6 °F 76% 29.48 in 10.0 mi South 21.9 mph 29.9 mph N/A   Overcast
9:35 PM 46.4 °F 38.1 °F 39.6 °F 77% 29.47 in 10.0 mi South 24.2 mph 31.1 mph N/A   Overcast
9:55 PM 45.9 °F 38.0 °F 39.4 °F 78% 29.48 in 10.0 mi South 20.7 mph 33.4 mph N/A   Overcast
10:15 PM 45.5 °F 36.3 °F 39.4 °F 79% 29.48 in 10.0 mi South 27.6 mph 35.7 mph N/A   Overcast
10:35 PM 45.0 °F 36.9 °F 39.6 °F 81% 29.48 in 10.0 mi South 20.7 mph 29.9 mph N/A   Overcast
10:55 PM 44.6 °F 37.4 °F 39.7 °F 83% 29.47 in 7.0 mi South 16.1 mph 29.9 mph N/A   Overcast
11:15 PM 44.1 °F 36.2 °F 39.7 °F 85% 29.47 in 5.0 mi South 18.4 mph 29.9 mph N/A Thunderstorm Overcast
11:35 PM 43.7 °F 35.0 °F 39.9 °F 87% 29.46 in 5.0 mi South 21.9 mph 27.6 mph N/A   Overcast
11:55 PM 43.5 °F 36.7 °F 39.9 °F 87% 29.45 in 5.0 mi South 13.8 mph 25.3 mph N/A   Overcast